| time (UTC) | temp F | wind direction | speed MPH | gust MPH | rain 1hr in | rain 24hr in | rain mn in | humidity % | barometer mb |
| 20260506204547 | 56 | 92 | 2.0 | 4.0 | 0.00 | 0.17 | 0.17 | 82 | 1012.0 |
| 20260506203046 | 56 | 227 | 1.0 | 3.0 | 0.00 | 0.17 | 0.17 | 82 | 1012.0 |
| 20260506201548 | 56 | 118 | 2.0 | 5.0 | 0.00 | 0.17 | 0.17 | 82 | 1011.8 |
| 20260506200045 | 56 | 229 | 1.0 | 3.0 | 0.01 | 0.17 | 0.17 | 82 | 1011.5 |
| 20260506194545 | 57 | 227 | 3.0 | 5.0 | 0.01 | 0.17 | 0.17 | 81 | 1011.3 |
| 20260506193045 | 57 | 234 | 1.0 | 4.0 | 0.01 | 0.17 | 0.17 | 81 | 1010.9 |
| 20260506191548 | 58 | 160 | 2.0 | 5.0 | 0.01 | 0.17 | 0.17 | 80 | 1010.7 |
| 20260506190043 | 58 | 216 | 1.0 | 2.0 | 0.00 | 0.17 | 0.16 | 80 | 1010.5 |
| 20260506184553 | 58 | 216 | 0.0 | 0.0 | 0.00 | 0.17 | 0.16 | 79 | 1010.4 |
| 20260506183042 | 58 | 215 | 0.0 | 2.0 | 0.00 | 0.17 | 0.16 | 80 | 1010.2 |
| 20260506181543 | 59 | 222 | 0.0 | 2.0 | 0.00 | 0.17 | 0.16 | 79 | 1010.0 |
| 20260506180041 | 60 | 222 | 1.0 | 3.0 | 0.00 | 0.17 | 0.16 | 78 | 1010.0 |
| 20260506174540 | 60 | 222 | 0.0 | 1.0 | 0.00 | 0.17 | 0.16 | 78 | 1010.0 |
| 20260506173046 | 61 | 222 | 1.0 | 4.0 | 0.00 | 0.17 | 0.16 | 76 | 1009.7 |
| 20260506171553 | 61 | 226 | 2.0 | 3.0 | 0.00 | 0.17 | 0.16 | 75 | 1009.4 |
| 20260506170043 | 61 | 227 | 0.0 | 3.0 | 0.00 | 0.17 | 0.16 | 74 | 1009.3 |
| 20260506164538 | 61 | 227 | 0.0 | 2.0 | 0.00 | 0.17 | 0.16 | 75 | 1009.3 |
| 20260506163037 | 61 | 227 | 2.0 | 4.0 | 0.00 | 0.17 | 0.16 | 73 | 1009.3 |
| 20260506161539 | 61 | 219 | 2.0 | 4.0 | 0.00 | 0.17 | 0.16 | 73 | 1009.3 |
| 20260506160039 | 61 | 205 | 1.0 | 3.0 | 0.00 | 0.17 | 0.16 | 74 | 1009.3 |
| 20260506154533 | 61 | 222 | 0.0 | 4.0 | 0.00 | 0.17 | 0.16 | 74 | 1009.5 |
| 20260506153030 | 60 | 218 | 0.0 | 4.0 | 0.00 | 0.17 | 0.16 | 77 | 1009.5 |
| 20260506151533 | 60 | 225 | 3.0 | 5.0 | 0.00 | 0.17 | 0.16 | 78 | 1009.8 |
| 20260506150028 | 60 | 254 | 2.0 | 5.0 | 0.00 | 0.17 | 0.16 | 77 | 1009.8 |
| 20260506144525 | 60 | 244 | 4.0 | 8.0 | 0.00 | 0.17 | 0.16 | 77 | 1009.9 |
| 20260506143024 | 60 | 315 | 0.0 | 7.0 | 0.00 | 0.17 | 0.16 | 79 | 1010.0 |
| 20260506141522 | 59 | 342 | 1.0 | 3.0 | 0.00 | 0.17 | 0.16 | 80 | 1010.3 |
| 20260506140028 | 59 | 282 | 1.0 | 4.0 | 0.01 | 0.17 | 0.16 | 79 | 1010.5 |
| 20260506134521 | 58 | 148 | 6.0 | 12.0 | 0.02 | 0.17 | 0.16 | 79 | 1010.9 |
| 20260506133027 | 57 | 131 | 7.0 | 15.0 | 0.05 | 0.17 | 0.16 | 80 | 1010.9 |
| 20260506131520 | 57 | 133 | 9.0 | 19.0 | 0.09 | 0.17 | 0.16 | 81 | 1010.8 |
| 20260506130019 | 57 | 139 | 9.0 | 15.0 | 0.11 | 0.16 | 0.15 | 80 | 1010.7 |
| 20260506124521 | 58 | 207 | 7.0 | 19.0 | 0.09 | 0.15 | 0.13 | 79 | 1010.9 |
| 20260506123015 | 58 | 116 | 6.0 | 9.0 | 0.07 | 0.13 | 0.11 | 82 | 1010.5 |
| 20260506121515 | 59 | 227 | 3.0 | 4.0 | 0.02 | 0.08 | 0.06 | 80 | 1010.4 |
| 20260506120012 | 59 | 317 | 2.0 | 4.0 | 0.01 | 0.06 | 0.04 | 79 | 1010.0 |
| 20260506114529 | 59 | 360 | 2.0 | 5.0 | 0.01 | 0.06 | 0.04 | 80 | 1010.0 |
| 20260506113011 | 59 | 334 | 3.0 | 5.0 | 0.01 | 0.06 | 0.04 | 81 | 1010.0 |
| 20260506111507 | 59 | 332 | 2.0 | 4.0 | 0.02 | 0.06 | 0.04 | 80 | 1010.4 |
| 20260506110004 | 59 | 283 | 2.0 | 4.0 | 0.02 | 0.05 | 0.03 | 78 | 1010.8 |
| 20260506104502 | 59 | 109 | 1.0 | 3.0 | 0.02 | 0.06 | 0.03 | 79 | 1010.9 |
| 20260506103002 | 59 | 150 | 2.0 | 3.0 | 0.02 | 0.06 | 0.03 | 78 | 1011.0 |
| 20260506101500 | 59 | 271 | 1.0 | 3.0 | 0.00 | 0.05 | 0.02 | 78 | 1011.1 |
| 20260506100114 | 59 | 271 | 1.0 | 3.0 | 0.00 | 0.05 | 0.02 | 79 | 1011.0 |
| 20260506094600 | 59 | 279 | 1.0 | 3.0 | 0.00 | 0.06 | 0.02 | 81 | 1010.8 |
| 20260506093059 | 58 | 286 | 2.0 | 4.0 | 0.00 | 0.06 | 0.02 | 80 | 1011.0 |
| 20260506091557 | 58 | 294 | 0.0 | 3.0 | 0.00 | 0.06 | 0.02 | 80 | 1011.1 |
| 20260506090055 | 58 | 290 | 0.0 | 3.0 | 0.00 | 0.06 | 0.02 | 81 | 1011.2 |
| 20260506084558 | 59 | 210 | 1.0 | 3.0 | 0.00 | 0.06 | 0.02 | 81 | 1011.2 |
| 20260506083052 | 58 | 246 | 0.0 | 2.0 | 0.00 | 0.06 | 0.02 | 81 | 1011.3 |
| 20260506081551 | 58 | 214 | 0.0 | 3.0 | 0.00 | 0.06 | 0.02 | 81 | 1011.3 |
| 20260506073046 | 57 | 175 | 1.0 | 3.0 | 0.01 | 0.06 | 0.02 | 82 | 1011.6 |
| 20260506071554 | 57 | 186 | 2.0 | 5.0 | 0.01 | 0.06 | 0.02 | 82 | 1011.6 |
| 20260506061543 | 57 | 163 | 2.0 | 4.0 | 0.00 | 0.05 | 0.01 | 81 | 1011.9 |
| 20260506044545 | 56 | 173 | 0.0 | 2.0 | 0.00 | 0.05 | 0.01 | 82 | 1011.6 |
| 20260506043038 | 55 | 173 | 1.0 | 3.0 | 0.00 | 0.05 | 0.01 | 82 | 1011.5 |
| 20260506041537 | 55 | 173 | 0.0 | 2.0 | 0.00 | 0.05 | 0.01 | 82 | 1011.7 |
| 20260506040036 | 55 | 165 | 0.0 | 2.0 | 0.00 | 0.05 | 0.01 | 82 | 1011.8 |
| 20260506034538 | 56 | 182 | 0.0 | 0.0 | 0.00 | 0.05 | 0.01 | 82 | 1011.8 |
| 20260506033036 | 56 | 182 | 0.0 | 0.0 | 0.00 | 0.05 | 0.01 | 82 | 1012.1 |
| 20260506031536 | 56 | 181 | 1.0 | 3.0 | 0.00 | 0.05 | 0.01 | 82 | 1012.2 |
| 20260506030054 | 56 | 146 | 1.0 | 3.0 | 0.00 | 0.05 | 0.01 | 82 | 1012.3 |
| 20260506024534 | 56 | 136 | 1.0 | 3.0 | 0.00 | 0.05 | 0.01 | 82 | 1012.3 |
| 20260506023032 | 56 | 147 | 2.0 | 3.0 | 0.00 | 0.05 | 0.01 | 82 | 1012.3 |
| 20260506021531 | 56 | 148 | 0.0 | 0.0 | 0.00 | 0.05 | 0.01 | 82 | 1012.2 |
| 20260506020028 | 56 | 148 | 0.0 | 0.0 | 0.01 | 0.05 | 0.01 | 82 | 1012.1 |
| 20260506014525 | 56 | 148 | 0.0 | 0.0 | 0.01 | 0.05 | 0.01 | 82 | 1012.4 |
| 20260506013024 | 56 | 148 | 0.0 | 2.0 | 0.01 | 0.05 | 0.01 | 82 | 1012.7 |
| 20260506011531 | 56 | 148 | 1.0 | 3.0 | 0.01 | 0.05 | 0.01 | 82 | 1012.7 |
| 20260506010022 | 56 | 147 | 0.0 | 0.0 | 0.00 | 0.04 | 0.00 | 82 | 1012.8 |
| 20260506004540 | 56 | 147 | 1.0 | 4.0 | 0.00 | 0.04 | 0.00 | 82 | 1012.8 |
| 20260506003026 | 57 | 165 | 0.0 | 0.0 | 0.00 | 0.04 | 0.00 | 82 | 1012.7 |
| 20260506001522 | 56 | 165 | 0.0 | 3.0 | 0.00 | 0.04 | 0.00 | 82 | 1012.8 |
| 20260506000022 | 56 | 207 | 0.0 | 2.0 | 0.00 | 0.04 | 0.00 | 82 | 1012.8 |
| 20260505234516 | 57 | 207 | 1.0 | 3.0 | 0.00 | 0.04 | 0.00 | 82 | 1013.1 |
| 20260505233015 | 57 | 207 | 2.0 | 4.0 | 0.00 | 0.04 | 0.00 | 81 | 1013.0 |
| 20260505231521 | 57 | 171 | 3.0 | 5.0 | 0.00 | 0.04 | 0.00 | 81 | 1013.1 |
| 20260505230014 | 57 | 142 | 2.0 | 6.0 | 0.00 | 0.04 | 0.00 | 81 | 1013.1 |
| 20260505224511 | 57 | 160 | 2.0 | 5.0 | 0.00 | 0.04 | 0.00 | 81 | 1013.3 |
| 20260505223010 | 57 | 166 | 3.0 | 7.0 | 0.00 | 0.04 | 0.00 | 81 | 1013.3 |
| 20260505221509 | 57 | 148 | 4.0 | 7.0 | 0.00 | 0.04 | 0.00 | 82 | 1013.4 |
| 20260505220008 | 57 | 134 | 2.0 | 5.0 | 0.00 | 0.04 | 0.00 | 81 | 1013.3 |
| 20260505214505 | 57 | 186 | 0.0 | 5.0 | 0.00 | 0.04 | 0.04 | 81 | 1013.4 |
| 20260505213007 | 57 | 155 | 0.0 | 0.0 | 0.00 | 0.04 | 0.04 | 81 | 1013.5 |
| 20260505211505 | 57 | 158 | 1.0 | 5.0 | 0.00 | 0.04 | 0.04 | 81 | 1013.6 |
| 20260505210004 | 57 | 165 | 3.0 | 6.0 | 0.00 | 0.04 | 0.04 | 81 | 1013.7 |